COSMOS 1295

Satellite information

Favourite Embed

Satellite Type and Status

PAYLOADIN ORBIT

Key statistics

Satellite COSMOS 1295 at a glance.

Uptime

16036

Days in orbit

Revolutions

≈ 13.8

Per day

Orbit

LEO

Low Earth Orbit

Inclination

82.9

Latest

Satellite identification and parameters

Extended collection of information and parameters for COSMOS 1295.

Object identification

Identified? True

Debris? False

Object name: COSMOS 1295

International designator: 1981-077A

Object number (NORAD): 12681

Object ID (CCSDS): 12681

Country: COMMONWEALTH OF INDEPENDENT STATES (CIS)

Current information (Y/N): Y

RCS size: LARGE

Orbital parameters

Period: 104.605 minutes

Inclination: 82.9178 deg

SMA: 7354.08 km

Apoapsis: 1008.709 km

Periapsis: 943.181 km

RAAN: 17.2656 deg

Eccentricy: 0.0044552

Argument of periapsis: 154.8499 deg

Mean anomaly: 316.5972 deg

Mean motion: 13.76607753 rev/day

Mean motion (dot): 0.00000065 rev/day2

B* drag term: 0.000050325 1/REarth

Two-line elements (TLE)

Creation date: July 8, 2025, 2:27 a.m.

Reference frame: TEME

Reference center: EARTH

Epoch: July 7, 2025, 10:47 p.m. UTC

TLE line 0: 0 COSMOS 1295

TLE line 1: 1 12681U 81077A 25188.94946233 .00000065 00000-0 50325-4 0 9995

TLE line 2: 2 12681 82.9178 17.2656 0044552 154.8499 316.5972 13.76607753204882

Live tracking on map

Real-time ground track for satellite COSMOS 1295.

In-orbit conjunctions

A list of the most updated potential collisions computed for object COSMOS 1295.

Target Orbit TCA Probability of collision Miss distance Type
SL-16 DEB LEO 2025-04-09 06:40:57 0.0006810708 133.0 (m) DEBRIS
CZ-4 DEB SSO 2024-10-13 08:36:36 0.0002607561 149.0 (m) DEBRIS

Associated space launch

Navigation satellite providing location information for the Tsiklon-B navigation system

COSMOS 1295 was lifted into orbit during the mission ‘Kosmos-3M | Parus 28’, on board a Kosmos-3M space rocket.

The launch took place on Aug. 12, 1981, 5:46 a.m. from 132/2.

For more information about the launch, click the button.

Launch to space Kosmos-3M | Parus 28
Kosmos-3M | Parus 28

Agency: N/A

Status: Launch Successful

Launch date: Aug. 12, 1981, 5:46 a.m. UTC

Rocket: Kosmos-3M

Launch pad: 132/2

Location: Plesetsk Cosmodrome, Russian Federation

...

Latest news about this satellite

There are no fresh news available about this satellite. Check back as we update our databases every day.


Newsletter sign-up

Weekly statistics, charts and insights to help you stay on top of the space industry.